This demonstration page uses our WeatherBlox Daily Observations layout. Learn more.

Left ArrowRight Arrow

39.92423, -83.80882

Hourly Observations for December 29, 2015

Temp ( °F °C ) Dew Point ( °F °C ) Humidity (%) Winds ( mph kmh ) Pressure ( in mb ) Visibility ( mi km ) Precip ( " mm )
12:17 am 00:17 Cloudy with Mist and Fog 54 12 54 12 100 100 SW 14 22 29.68 1005 3 4.82802 0.01 0.254
12:24 am 00:24 Cloudy 54 12 54 12 100 100 SW 13 20 29.68 1005 10 16.0934 0.01 0.254
12:38 am 00:38 Cloudy 54 12 54 12 100 100 WSW 12 19 29.68 1005 10 16.0934 0.02 0.508
12:46 am 00:46 Cloudy 54 12 54 12 100 100 WSW 13 20 29.68 1005 10 16.0934 0.02 0.508
12:56 am 00:56 Cloudy 53 11.6 52 11.1 97 97 WSW 14 22 29.68 1005 10 16.0934 0.02 0.508
1:04 am 01:04 Mostly Cloudy 54 12 52 11 94 94 WSW 13 20 29.68 1005 10 16.0934 0 0
1:56 am 01:56 Partly Cloudy 51 10.5 49 9.4 93 93 SSW 13 20 29.7 1006 10 16.0934 0 0
2:34 am 02:34 Cloudy 52 11 46 8 82 82 SW 16 26 29.71 1006 10 16.0934 0 0
2:56 am 02:56 Cloudy 51 10.5 47 8.3 86 86 SW 12 19 29.74 1007 10 16.0934 0 0
3:56 am 03:56 Cloudy 50 10 46 7.7 86 86 SSW 22 35 29.75 1008 10 16.0934 0 0
4:56 am 04:56 Cloudy 48 8.8 43 6.1 83 83 SW 22 35 29.78 1008 10 16.0934 0 0
5:56 am 05:56 Cloudy 46 7.7 40 4.4 80 80 SSW 14 22 29.82 1010 10 16.0934 0 0
6:56 am 06:56 Cloudy 45 7.2 40 4.4 83 83 SSW 15 24 29.85 1011 10 16.0934 0 0
7:56 am 07:56 Cloudy 45 7.2 40 4.4 83 83 SW 17 28 29.87 1012 10 16.0934 0 0
8:56 am 08:56 Cloudy 45 7.2 39 3.8 79 79 SSW 14 22 29.9 1013 10 16.0934 0 0
9:56 am 09:56 Cloudy 45 7.2 39 3.8 79 79 SW 22 35 29.94 1014 10 16.0934 0 0
10:21 am 10:21 Cloudy 43 6 41 5 93 93 WSW 18 30 29.97 1015 7 11.26538 0 0
10:56 am 10:56 Cloudy 43 6.1 40 4.4 89 89 SW 22 35 29.98 1015 10 16.0934 0 0
11:56 am 11:56 Cloudy 42 5.5 38 3.3 86 86 WSW 21 33 30 1016 10 16.0934 0 0
12:56 pm 12:56 Cloudy 41 5 36 2.2 82 82 WSW 21 33 30.01 1016 10 16.0934 0 0
1:56 pm 13:56 Cloudy 40 4.4 34 1.1 79 79 WSW 21 33 30.04 1017 10 16.0934 0 0
2:56 pm 14:56 Cloudy 40 4.4 33 0.5 76 76 WSW 15 24 30.06 1018 10 16.0934 0 0
3:56 pm 15:56 Cloudy 39 3.8 33 0.5 79 79 WSW 12 19 30.09 1019 10 16.0934 0 0
4:56 pm 16:56 Cloudy 39 3.8 33 0.5 79 79 WSW 10 17 30.13 1020 10 16.0934 0 0
5:56 pm 17:56 Cloudy 38 3.3 33 0.5 82 82 WSW 9 15 30.15 1021 10 16.0934 0 0
6:56 pm 18:56 Cloudy 38 3.3 33 0.5 82 82 W 8 13 30.17 1022 10 16.0934 0 0
7:56 pm 19:56 Cloudy 37 2.7 32 0 83 83 W 6 9 30.18 1022 10 16.0934 0 0
8:56 pm 20:56 Cloudy 37 2.7 32 0 83 83 W 8 13 30.19 1022 10 16.0934 0 0
9:56 pm 21:56 Cloudy 37 2.7 32 0 83 83 WNW 6 9 30.18 1022 10 16.0934 0 0
10:56 pm 22:56 Cloudy 37 2.7 32 0 83 83 NW 6 9 30.21 1023 10 16.0934 0 0
11:56 pm 23:56 Cloudy 36 2.2 33 0.5 89 89 NNW 5 7 30.21 1023 10 16.0934 0 0

Powered by AerisWeather